• In Hungary
  • List of Countries
  • For 7 days
  • Water Temperature
  • Satellite Maps
  • Weather Map
  • News
  • Weather Widgets
  • user-avatar
    Login

    Hourly Weather Prince Edward Island National Park

    Today, 11 December, Monday

    Time Temperature Precipitation Wind Pressure Humidity
    00:00 -4°C° 0 mm 8 mps 754 mmHg 70%
    01:00 -4°C° 0 mm 9 mps 754 mmHg 70%
    02:00 -4°C° 0 mm 9 mps 755 mmHg 70%
    03:00 -4°C° 0 mm 9 mps 755 mmHg 68%
    04:00 -4°C° 0 mm 9 mps 756 mmHg 66%
    05:00 -5°C° 0 mm 8 mps 757 mmHg 64%
    06:00 -4°C° 0 mm 7 mps 757 mmHg 63%
    07:00 -5°C° 0 mm 6 mps 758 mmHg 61%
    08:00 -4°C° 0 mm 4 mps 758 mmHg 59%
    09:00 -3°C° 0 mm 4 mps 758 mmHg 58%
    10:00 -2°C° 0 mm 3 mps 758 mmHg 57%
    11:00 -2°C° 0 mm 3 mps 758 mmHg 56%
    12:00 -1°C° 0 mm 3 mps 758 mmHg 57%
    13:00 -2°C° 0 mm 4 mps 757 mmHg 59%
    14:00 -1°C° 0 mm 4 mps 756 mmHg 60%
    15:00 -1°C° 0.4 mm 3 mps 756 mmHg 69%
    16:00 -1°C° 0.4 mm 3 mps 756 mmHg 78%
    17:00 -1°C° 0.4 mm 2 mps 756 mmHg 86%
    18:00 -1°C° 0.7 mm 3 mps 756 mmHg 85%
    19:00 -1°C° 0.7 mm 3 mps 756 mmHg 83%
    20:00 -1°C° 0.7 mm 3 mps 757 mmHg 82%
    21:00 -2°C° 0 mm 4 mps 757 mmHg 80%
    22:00 -2°C° 0 mm 5 mps 758 mmHg 79%
    23:00 -2°C° 0 mm 5 mps 758 mmHg 77%

    Tomorrow, 12 December, Tuesday

    Time Temperature Precipitation Wind Pressure Humidity
    00:00 -2°C° 0.1 mm 5 mps 759 mmHg 78%
    01:00 -4°C° 0.1 mm 5 mps 759 mmHg 79%
    02:00 -4°C° 0.1 mm 5 mps 760 mmHg 80%
    03:00 -3°C° 0 mm 4 mps 760 mmHg 80%
    04:00 -2°C° 0 mm 3 mps 760 mmHg 79%
    05:00 -4°C° 0 mm 3 mps 761 mmHg 79%
    06:00 -3°C° 0 mm 2 mps 761 mmHg 78%
    07:00 -2°C° 0 mm 2 mps 761 mmHg 77%
    08:00 0°C° 0 mm 1 mps 762 mmHg 76%
    09:00 -2°C° 0 mm 2 mps 761 mmHg 74%
    10:00 -1°C° 0 mm 2 mps 761 mmHg 72%
    11:00 -1°C° 0 mm 3 mps 761 mmHg 70%
    12:00 0°C° 0 mm 3 mps 761 mmHg 70%
    13:00 -1°C° 0 mm 4 mps 760 mmHg 70%
    14:00 -1°C° 0 mm 4 mps 759 mmHg 70%
    15:00 0°C° 0.1 mm 5 mps 759 mmHg 72%
    16:00 -1°C° 0.1 mm 7 mps 758 mmHg 73%
    17:00 -1°C° 0.1 mm 8 mps 757 mmHg 75%
    18:00 -1°C° 0.1 mm 9 mps 756 mmHg 77%
    19:00 0°C° 0.1 mm 10 mps 755 mmHg 79%
    20:00 -1°C° 0.1 mm 11 mps 754 mmHg 81%
    21:00 0°C° 1.3 mm 12 mps 753 mmHg 83%
    22:00 0°C° 1.3 mm 13 mps 751 mmHg 84%
    23:00 0°C° 1.3 mm 14 mps 750 mmHg 86%

    Day after tomorrow, 13 December, Wednesday

    Time Temperature Precipitation Wind Pressure Humidity
    00:00 +1°C° 3.1 mm 13 mps 748 mmHg 87%
    01:00 +3°C° 3.1 mm 12 mps 746 mmHg 89%
    02:00 +4°C° 3.1 mm 11 mps 744 mmHg 90%
    03:00 +5°C° 4.4 mm 10 mps 743 mmHg 92%
    04:00 +6°C° 4.4 mm 8 mps 741 mmHg 93%
    05:00 +6°C° 4.4 mm 7 mps 740 mmHg 95%
    06:00 +7°C° 1 mm 6 mps 739 mmHg 93%
    07:00 +7°C° 1 mm 6 mps 739 mmHg 91%
    08:00 +8°C° 1 mm 5 mps 738 mmHg 89%
    09:00 +7°C° 1 mm 5 mps 738 mmHg 90%
    10:00 +7°C° 1 mm 5 mps 738 mmHg 92%
    11:00 +6°C° 1 mm 5 mps 737 mmHg 93%
    12:00 +6°C° 0.5 mm 4 mps 737 mmHg 93%
    13:00 +7°C° 0.5 mm 3 mps 736 mmHg 94%
    14:00 +5°C° 0.5 mm 3 mps 735 mmHg 95%
    15:00 +5°C° 0.6 mm 3 mps 734 mmHg 93%
    16:00 +5°C° 0.6 mm 3 mps 734 mmHg 91%
    17:00 +4°C° 0.6 mm 3 mps 733 mmHg 89%
    18:00 +3°C° 1.3 mm 5 mps 733 mmHg 86%
    19:00 +3°C° 1.3 mm 6 mps 733 mmHg 84%
    20:00 +1°C° 1.3 mm 8 mps 733 mmHg 81%
    21:00 0°C° 0.6 mm 9 mps 733 mmHg 78%
    22:00 0°C° 0.6 mm 9 mps 733 mmHg 75%
    23:00 -2°C° 0.6 mm 10 mps 733 mmHg 72%

    14 December, Thursday

    Time Temperature Precipitation Wind Pressure Humidity
    00:00 -3°C° 0.2 mm 11 mps 733 mmHg 72%
    01:00 -5°C° 0.2 mm 12 mps 733 mmHg 72%
    02:00 -6°C° 0.2 mm 14 mps 733 mmHg 72%
    03:00 -8°C° 0 mm 14 mps 734 mmHg 72%
    04:00 -8°C° 0 mm 14 mps 735 mmHg 72%
    05:00 -9°C° 0 mm 15 mps 735 mmHg 72%
    06:00 -9°C° 0 mm 15 mps 736 mmHg 71%
    07:00 -10°C° 0 mm 15 mps 736 mmHg 70%
    08:00 -10°C° 0 mm 15 mps 737 mmHg 70%
    09:00 -10°C° 0 mm 15 mps 738 mmHg 70%
    10:00 -10°C° 0 mm 15 mps 738 mmHg 70%
    11:00 -12°C° 0 mm 15 mps 739 mmHg 70%
    12:00 -10°C° 0 mm 14 mps 740 mmHg 70%
    13:00 -10°C° 0 mm 14 mps 740 mmHg 69%
    14:00 -10°C° 0 mm 14 mps 740 mmHg 69%
    15:00 -10°C° 0 mm 14 mps 741 mmHg 69%
    16:00 -10°C° 0 mm 14 mps 742 mmHg 70%
    17:00 -11°C° 0 mm 14 mps 743 mmHg 70%
    18:00 -11°C° 0 mm 13 mps 744 mmHg 71%
    19:00 -11°C° 0 mm 13 mps 745 mmHg 72%
    20:00 -11°C° 0 mm 13 mps 746 mmHg 73%
    21:00 -11°C° 0 mm 12 mps 747 mmHg 73%
    22:00 -12°C° 0 mm 12 mps 748 mmHg 72%
    23:00 -12°C° 0 mm 12 mps 748 mmHg 72%

    15 December, Friday

    Time Temperature Precipitation Wind Pressure Humidity
    00:00 -12°C° 0 mm 11 mps 749 mmHg 71%
    01:00 -12°C° 0 mm 11 mps 749 mmHg 70%
    02:00 -12°C° 0 mm 10 mps 749 mmHg 69%
    03:00 -12°C° 0 mm 10 mps 749 mmHg 70%
    04:00 -11°C° 0 mm 9 mps 750 mmHg 70%
    05:00 -11°C° 0 mm 9 mps 750 mmHg 70%
    06:00 -11°C° 0 mm 9 mps 751 mmHg 71%
    07:00 -11°C° 0 mm 8 mps 751 mmHg 71%
    08:00 -12°C° 0 mm 8 mps 752 mmHg 72%
    09:00 -11°C° 0 mm 8 mps 752 mmHg 71%
    10:00 -11°C° 0 mm 8 mps 752 mmHg 70%
    11:00 -11°C° 0 mm 7 mps 753 mmHg 68%
    12:00 -11°C° 0 mm 7 mps 753 mmHg 66%
    13:00 -9°C° 0 mm 7 mps 752 mmHg 64%
    14:00 -9°C° 0 mm 7 mps 752 mmHg 62%
    15:00 -9°C° 0 mm 6 mps 752 mmHg 62%
    16:00 -8°C° 0 mm 5 mps 753 mmHg 62%
    17:00 -8°C° 0 mm 5 mps 753 mmHg 61%
    18:00 -8°C° 0 mm 5 mps 753 mmHg 63%
    19:00 -8°C° 0 mm 4 mps 753 mmHg 64%
    20:00 -8°C° 0 mm 4 mps 753 mmHg 65%
    21:00 -8°C° 0 mm 4 mps 753 mmHg 66%
    22:00 -8°C° 0 mm 4 mps 752 mmHg 66%
    23:00 -7°C° 0 mm 3 mps 752 mmHg 67%

    16 December, Saturday

    Time Temperature Precipitation Wind Pressure Humidity
    00:00 -8°C° 0 mm 4 mps 752 mmHg 68%
    01:00 -8°C° 0 mm 4 mps 752 mmHg 69%
    02:00 -8°C° 0 mm 4 mps 751 mmHg 70%
    03:00 -8°C° 0 mm 5 mps 751 mmHg 71%
    04:00 -8°C° 0 mm 5 mps 751 mmHg 72%
    05:00 -9°C° 0 mm 6 mps 750 mmHg 73%
    06:00 -9°C° 0.1 mm 6 mps 750 mmHg 72%
    07:00 -9°C° 0.1 mm 6 mps 751 mmHg 72%
    08:00 -9°C° 0.1 mm 6 mps 751 mmHg 71%
    09:00 -9°C° 0.1 mm 7 mps 751 mmHg 70%
    10:00 -10°C° 0.1 mm 8 mps 751 mmHg 69%
    11:00 -10°C° 0.1 mm 9 mps 751 mmHg 68%
    12:00 -11°C° 0 mm 9 mps 751 mmHg 66%
    13:00 -11°C° 0 mm 9 mps 751 mmHg 64%
    14:00 -12°C° 0 mm 10 mps 751 mmHg 62%
    15:00 -12°C° 0 mm 10 mps 752 mmHg 62%
    16:00 -12°C° 0 mm 10 mps 753 mmHg 62%
    17:00 -11°C° 0 mm 9 mps 754 mmHg 61%
    18:00 -11°C° 0 mm 9 mps 754 mmHg 62%
    19:00 -10°C° 0 mm 8 mps 754 mmHg 63%
    20:00 -10°C° 0 mm 8 mps 754 mmHg 63%
    21:00 -9°C° 0 mm 7 mps 754 mmHg 66%
    22:00 -8°C° 0 mm 7 mps 754 mmHg 69%
    23:00 -8°C° 0 mm 6 mps 753 mmHg 71%
    Show more